Regional Weather Roundup
Issued by NWS

Home | Current Version | Previous Version | Text Only | Print | Product List | Glossary Off
Versions: 1 2 3 4 5 6 7 8 9 10 11 12 13 14 15 16 17 18 19 20 21 22 23 24 25 26 27 28 29 30 31 32 33 34 35 36 37 38 39 40 41 42 43 44 45 46 47 48 49 50

000
ASUS43 KLSX 010059
RWRMO

WEATHER SUMMARY FOR MISSOURI
NATIONAL WEATHER SERVICE SPRINGFIELD MO
800 PM CDT TUE SEP 30 2014

NOTE: "FAIR" INDICATES FEW OR NO CLOUDS BELOW 12,000 FEET WITH NO
       SIGNIFICANT WEATHER AND/OR OBSTRUCTIONS TO VISIBILITY.
       CURRENT SKY AND/OR WEATHER CONDITIONS ARE NOT AVAILABLE FOR
       CHILLICOTHE AND FARMINGTON.

MOZ001>031-035>038-043-044-053-054-010200-
...NORTHERN AND WESTERN MISSOURI...

CITY           SKY/WX    TMP DP  RH WIND       PRES   REMARKS
KANSAS CTY INT PTCLDY    72  58  61 SE7       29.79S
KANSAS C DTWN  PTCLDY    79  57  46 SE9       29.78S
LEE`S SUMMIT   CLEAR     75  57  53 SE5       29.81S
ST JOSEPH      CLOUDY    74  58  57 SE10      29.76S
CHILLICOTHE      N/A     72  62  71 E3        29.83R

$$
MOZ066>068-077>081-088>096-101>105-010200-
...SOUTHWEST MISSOURI...

CITY           SKY/WX    TMP DP  RH WIND       PRES   REMARKS
SPRINGFIELD    CLEAR     71  56  58 S6        29.85S
JOPLIN         CLEAR     75  61  61 SE8       29.82F

$$
MOZ032>034-039>042-045>050-055>058-069>072-010200-
...CENTRAL MISSOURI...

CITY           SKY/WX    TMP DP  RH WIND       PRES   REMARKS
COLUMBIA       CLEAR     74  56  53 CALM      29.85S
JEFFERSON CITY PTCLDY    71  60  68 SE6       29.83S
ROLLA          MOCLDY    72  53  51 SE6       29.86S
SEDALIA        CLEAR     72  59  63 SE5       29.84S
OSAGE BEACH    CLEAR     73  57  56 S3        29.85S

$$
MOZ051-052-059>065-010200-
...EAST CENTRAL MISSOURI...

CITY           SKY/WX    TMP DP  RH WIND       PRES   REMARKS
ST LOUIS INTL  PTCLDY    76  59  55 E9        29.88S
SPIRIT OF STL  CLEAR    N/A N/A N/A CALM      29.86R
ST CHARLES     CLEAR     71  60  68 E6        29.87R

$$
MOZ072>076-082>087-097>100-106>115-010200-
...SOUTH CENTRAL AND SOUTHEAST MISSOURI...

CITY           SKY/WX    TMP DP  RH WIND       PRES   REMARKS
CAPE GIRARDEAU CLEAR     65  59  81 E3        29.88R
FARMINGTON     CLEAR     70  55  60 CALM      29.92R
POPLAR BLUFF   PTCLDY    67  56  67 CALM      29.86S
WEST PLAINS    CLEAR     65  54  67 CALM      29.91S

$$



USA.gov is the U.S. government's official web portal to all federal, state and local government web resources and services.